Flag for Canada Weather past 2 weeks in Fort Simpson, Northwest Territories, Canada

Now
-13 °F

Partly sunny.


Feels Like: -23 °F
Forecast: -23 / -6 °F
Wind: 3 mph from Northwest

Location: Fort Simpson

Current Time: Feb 1, 2015 at 1:27:34 PM

Latest Report: Feb 1, 2015 at 1:00 PM


Visibility: 15 mi

Pressure: 30.49 "Hg

Humidity: 69%

Dew point: -20 °F

Location of Fort SimpsonLocation

Historic Weather in Fort Simpson — Graph

°F

Fort Simpson temperature yesterday

Maximum temperature yesterday: -11 °F (at 3:00 PM)
Minimum temperature yesterday: -35 °F (at 4:00 AM)
Average temperature yesterday: -23 °F

Past Weeks' High & Low Weather Summary

 TemperatureHumidityPressure
High10 °F (Jan 21, 3:00 PM)85% (Jan 20, 5:00 PM)30.87 "Hg (Jan 20, 5:00 PM)
Low-35 °F (Jan 31, 4:00 AM)60% (Jan 29, 3:00 AM)29.31 "Hg (Jan 21, 1:00 PM)
Average-8 °F73%30.10 "Hg
* Reported Jan 17 12:00 Noon — Feb 1 12:00 Noon, Fort Simpson, Weather by CustomWeather, © 2014

Note: Actual official high and low records may vary slightly from our data, if they occured in-between our weather recording intervals... More about our weather records

Advertising

Fort Simpson weather history for previous 24 hours

 ConditionsComfort  
Time TempWeatherWind HumidityBarometerVisibility
12:00 PM
Feb 1
-20 °FPassing clouds.No wind68%30.49 "Hg15 mi
11:00 AM-24 °FPassing clouds.2 mph68%30.50 "Hg15 mi
10:00 AM-27 °FPassing clouds.No wind67%30.50 "Hg15 mi
9:00 AM-27 °FPassing clouds.2 mph67%30.50 "Hg15 mi
8:00 AM-27 °FClear.No wind67%30.52 "Hg15 mi
7:00 AM-26 °FClear.No wind67%30.52 "Hg15 mi
6:00 AM-24 °FPassing clouds.No wind68%30.52 "Hg15 mi
5:00 AM-26 °FPassing clouds.No wind67%30.53 "Hg15 mi
4:00 AM-24 °FPassing clouds.No wind68%30.53 "Hg15 mi
3:00 AM-24 °FClear.No wind68%30.53 "Hg15 mi
2:00 AM-22 °FPassing clouds.2 mph75%30.52 "Hg15 mi
1:00 AM-18 °FPartly cloudy.No wind69%30.51 "Hg15 mi
12:00 AM-18 °FPassing clouds.3 mph69%30.52 "Hg15 mi
11:00 PM
Jan 31
-17 °FPartly cloudy.5 mph69%30.51 "Hg15 mi
10:00 PM-20 °FPassing clouds.2 mph68%30.51 "Hg15 mi
9:00 PM-24 °FPassing clouds.No wind68%30.51 "Hg15 mi
8:00 PM-24 °FPassing clouds.2 mph68%30.50 "Hg15 mi
7:00 PM-22 °FPassing clouds.2 mph68%30.51 "Hg15 mi
6:00 PM-18 °FPassing clouds.2 mph75%30.50 "Hg15 mi
5:00 PM-11 °FScattered clouds.3 mph70%30.51 "Hg15 mi
4:00 PM-15 °FScattered clouds.No wind69%30.53 "Hg15 mi
3:00 PM-11 °FPassing clouds.3 mph70%30.55 "Hg15 mi
2:00 PM-13 °FPartly sunny.No wind69%30.56 "Hg15 mi
1:00 PM-17 °FPartly sunny.3 mph69%30.61 "Hg15 mi
Weather by CustomWeather, © 2014

See weather overviewHow to use our weather pages